Location: Quaker Farms
(41.4276°N, 73.1557°W)
Time: 02:20:23
(UTC+00:00)

Altair - Pass Details

Date: 19 June 2021
Orbit: 1501 x 1682 km, 47.2° (Epoch: 23 July)

Event Time Altitude Azimuth Distance (km) Brightness Sun altitude
Rises 17:33:53 0° 225° (SW) 4,652 10.3 70.2°
Reaches altitude 10° 17:36:54 10° 222° (SW) 3,689 10.0 69.9°
Maximum altitude 17:46:04 65° 143° (SE) 1,701 9.2 69.0°
Drops below altitude 10° 17:55:38 10° 65° (ENE) 3,837 9.5 67.9°
Sets 17:58:49 0° 63° (ENE) 4,848 9.9 67.5°
